Simultaneous Nadir Overpasses (SNOs) Predictions

Prediction of SNOs between GOES-16 and METOP-B Satellite Orbit:

Table of predicted SNOs for the next 14.0 days since TLE Epoch: 1/5/2019
Index Date Time (GOES-16) GOES-16 Lat,Lon METOP-B Lat,Lon Distance(km) Time Diff (sec)
1 01/05/2019 14:40:04 0.01, -75.20 0.64, -78.13 332.79 80
2 01/06/2019 14:22:05 0.02, -75.20 -0.42, -73.12 236.62 80
3 01/08/2019 02:38:27 -0.02, -75.20 -0.58, -77.72 287.32 80
4 01/09/2019 02:20:29 -0.03, -75.21 0.54, -72.73 282.49 80
5 01/10/2019 14:36:41 0.03, -75.22 0.50, -77.29 234.92 80
6 01/11/2019 14:18:43 0.04, -75.23 -0.62, -72.29 335.24 80
7 01/13/2019 02:35:04 -0.04, -75.24 -0.43, -76.88 187.58 80
8 01/14/2019 02:17:05 -0.04, -75.26 0.69, -71.89 382.87 80
9 01/15/2019 14:33:19 0.04, -75.28 0.29, -76.46 133.83 80
10 01/16/2019 14:15:20 0.04, -75.30 -0.83, -71.47 436.70 80
11 01/18/2019 02:31:42 -0.04, -75.31 -0.22, -76.06 85.71 80
12 01/19/2019 02:13:43 -0.04, -75.32 0.91, -71.07 484.91 80




NCC Satellite Simultaneous Nadir Overpasses (SNOs) Prediction Service
